x

8461490 - New London, Ct (nlnc3) Weather Station

2:54 - Mon 25th Sep 2017 All times are EDT. -4 hours from GMT.

  • Wind
    5mph, 6mph gusts
  • Sea Temp 68°f
  • Luft Temp 65°f
  • Sea Pressure 1016.7mb
  • 8461490 - New London, Ct
  • 8461490 - New London, Ct

More Historic Weather Station data

Upgrade to MSW Pro to gain access to the past 30 days of data for over 8000 Wavebouys and Weather Stations around the globe.

Join

Comparision Forecast

View Surf forecast
   
Mo 09/25 2:54 5 6 mph 1016.7mb 68f 65f
2:48 5 6 mph 1016.7mb 68f 65f
2:42 3 5 mph 1016.7mb 68f 65f
2:36 3 5 mph 1016.8mb 68f 65f
2:30 2 3 mph 1016.7mb 68f 65f
2:24  -  2 mph 1016.7mb 68f 66f
2:18  -  2 mph 1016.7mb 68f 66f
2:12 1 3 mph 1016.8mb 68f 66f
2:06 2 3 mph 1016.9mb 68f 65f
2:00 3 5 mph 1016.8mb 68f 65f
1:54 3 5 mph 1016.9mb 68f 66f
1:48 3 5 mph 1016.9mb 68f 66f
1:42 3 5 mph 1017mb 68f 66f
1:36 3 5 mph 1017mb 68f 66f
1:30 3 3 mph 1017.1mb 68f 66f
1:24 2 3 mph 1017.1mb 68f 66f
1:18 2 3 mph 1017.1mb 68f 66f
1:12 2 3 mph 1017.1mb 68f 66f
1:06 2 3 mph 1017.2mb 68f 66f
1:00 2 3 mph 1017.2mb 68f 66f
12:54 2 2 mph 1017.3mb 67f 67f
12:48 2 2 mph 1017.3mb 68f 67f
12:42 2 3 mph 1017.3mb 68f 67f
12:36 2 3 mph 1017.2mb 68f 67f
12:30 2 3 mph 1017.2mb 68f 67f
12:24 2 2 mph 1017.3mb 68f 67f
12:18  -  2 mph 1017.3mb 68f 67f
12:12  -  1 mph 1017.4mb 68f 67f
12:06  -  2 mph 1017.5mb 68f 67f
12:00 2 2 mph 1017.5mb 68f 67f
So 09/24 11:54 2 2 mph 1017.5mb 67f 67f
11:48 2 2 mph 1017.5mb 67f 67f
11:42 1 1 mph 1017.5mb 67f 67f
11:36  -  1 mph 1017.6mb 68f 67f
11:30  -  0 mph 1017.6mb 68f 67f
11:24  -  0 mph 1017.5mb 68f 67f
11:18  -  0 mph 1017.5mb 68f 67f
11:12  -  0 mph 1017.6mb 68f 67f
11:06  -  1 mph 1017.6mb 68f 68f
11:00 1 2 mph 1017.5mb 68f 68f
10:54 1 3 mph 1017.5mb 68f 68f
10:48 2 3 mph 1017.5mb 68f 68f
10:42 3 3 mph 1017.5mb 68f 68f
10:36 2 3 mph 1017.5mb 68f 68f
10:30 1 2 mph 1017.5mb 68f 69f
10:24 1 2 mph 1017.5mb 68f 69f
10:18  -  0 mph 1017.5mb 68f 69f
10:12  -  1 mph 1017.5mb 68f 69f
10:06  -  0 mph 1017.5mb 68f 69f
10:00  -  0 mph 1017.5mb 68f 69f
9:54  -  0 mph 1017.5mb 68f 69f
9:48  -  1 mph 1017.4mb 68f 69f
9:42 1 1 mph 1017.4mb 68f 69f
9:36 1 2 mph 1017.4mb 68f 69f
9:30 2 3 mph 1017.4mb 68f 70f
9:24 2 2 mph 1017.4mb 68f 70f
9:18  -  1 mph 1017.3mb 68f 70f
9:12  -  1 mph 1017.3mb 68f 70f
9:06  -  1 mph 1017.3mb 68f 70f
9:00  -  1 mph 1017.2mb 68f 70f
8:48  -  1 mph 1017.2mb 68f 70f
8:42  -  1 mph 1017.2mb 68f 71f
8:36 1 1 mph 1017.2mb 68f 71f
8:30  -  1 mph 1017.1mb 68f 71f
8:24  -  2 mph 1017mb 68f 71f
8:18 2 3 mph 1017mb 68f 72f
8:12 3 3 mph 1017mb 68f 72f
8:06 3 5 mph 1017mb 68f 72f
8:00 3 5 mph 1016.9mb 68f 72f
7:54 5 5 mph 1016.9mb 68f 72f
7:48 5 5 mph - - -
7:42 5 6 mph - - -
7:36 6 6 mph - - -
7:30 3 5 mph 1016.8mb 68f 73f
7:24 3 5 mph 1016.7mb 68f 73f
7:18 3 5 mph 1016.7mb 68f 73f
7:12 5 5 mph 1016.6mb 68f 73f
7:06 5 6 mph 1016.6mb 68f 73f
7:00 5 6 mph 1016.6mb 68f 73f
6:54 3 6 mph 1016.6mb 68f 73f
6:48 6 6 mph 1016.6mb 68f 73f
6:42 5 6 mph 1016.6mb 68f 73f
6:36 5 5 mph 1016.6mb 68f 74f
6:30 3 6 mph 1016.5mb 68f 74f
6:24 6 6 mph 1016.5mb 68f 73f
6:18 6 7 mph 1016.4mb 68f 74f
6:12 6 8 mph 1016.4mb 67f 74f
6:06 7 8 mph 1016.4mb 68f 75f
6:00 6 7 mph 1016.4mb 68f 75f
5:54 6 7 mph 1016.3mb 68f 76f
5:48 6 6 mph 1016.3mb 68f 77f
5:42 5 6 mph 1016.4mb 68f 76f
5:36 6 7 mph 1016.4mb 68f 76f
5:30 6 6 mph 1016.4mb 68f 76f
5:24 6 7 mph 1016.4mb 68f 75f
5:18 6 8 mph 1016.4mb 68f 75f
5:12 8 9 mph 1016.4mb 68f 75f
5:06 8 9 mph 1016.4mb 68f 75f
5:00 8 10 mph 1016.4mb 68f 75f
4:54 9 9 mph 1016.4mb 68f 75f
4:48 9 10 mph 1016.4mb 68f 75f
4:42 10 10 mph 1016.4mb 68f 76f
4:36 8 9 mph 1016.4mb 68f 76f
4:30 8 9 mph 1016.4mb 68f 76f
4:24 8 9 mph 1016.5mb 68f 77f
4:18 7 8 mph 1016.5mb 68f 76f
4:12 6 8 mph 1016.5mb 69f 78f
4:06 7 8 mph 1016.5mb 69f 77f
4:00 6 6 mph 1016.6mb 69f 79f
3:54 6 6 mph 1016.6mb 69f 78f
3:48 5 6 mph 1016.7mb 69f 78f
3:42 5 6 mph 1016.7mb 69f 77f
3:36 6 6 mph 1016.8mb 69f 77f
3:30 6 7 mph 1016.9mb 69f 76f
3:24 6 6 mph 1017mb 68f 76f
3:18 6 8 mph 1017mb 69f 76f
3:12 7 8 mph 1017.1mb 69f 76f
3:06 7 7 mph 1017.1mb 69f 76f
3:00 7 8 mph 1017.1mb 69f 75f
2:54 8 9 mph 1017.1mb 69f 74f
2:48 9 9 mph 1017.2mb 68f 74f
2:42 8 10 mph 1017.2mb 68f 75f
2:36 7 8 mph 1017.2mb 68f 76f
2:30 7 9 mph 1017.2mb - 76f
2:24 8 10 mph 1017.2mb - 75f
2:18 9 10 mph 1017.3mb 67f 75f
2:12 9 10 mph 1017.3mb 67f 76f
2:06 9 10 mph 1017.4mb 67f 76f
2:00 9 11 mph 1017.4mb 67f 76f
1:54 11 13 mph 1017.4mb 68f 76f
1:48 10 13 mph 1017.5mb 68f 76f
1:42 11 13 mph 1017.5mb 68f 75f
1:36 11 11 mph 1017.4mb 68f 75f
1:30 9 11 mph 1017.4mb 68f 76f
1:24 10 11 mph 1017.4mb 68f 75f
1:18 9 11 mph 1017.4mb 68f 76f
1:12 11 13 mph 1017.4mb 68f 75f
1:06 11 13 mph 1017.4mb 67f 75f
1:00 10 13 mph 1017.4mb 68f 74f
12:54 13 15 mph 1017.4mb 67f 74f
12:48 14 15 mph 1017.4mb 67f 74f
12:42 14 16 mph 1017.3mb 67f 76f
12:36 13 15 mph 1017.3mb 68f 76f
12:30 11 13 mph 1017.3mb 68f 75f
12:24 9 10 mph 1017.3mb 67f 76f
12:18 9 10 mph 1017.2mb 67f 76f
12:12 8 10 mph 1017.3mb 67f 76f
12:06 8 11 mph 1017.4mb 67f 76f
12:00 10 13 mph 1017.3mb 67f 75f
11:54 8 11 mph 1017.3mb 67f 76f
11:48 3 5 mph 1017.3mb 67f 81f
11:42 2 3 mph 1017.3mb 67f 81f
11:36 3 6 mph 1017.3mb 67f 80f
11:30 5 6 mph 1017.4mb 67f 79f
11:24 5 6 mph 1017.4mb 67f 79f
11:18 3 6 mph 1017.3mb 67f 78f
11:12 5 7 mph 1017.3mb 67f 78f
11:06 2 5 mph 1017.3mb 67f 77f
11:00 3 6 mph 1017.3mb 67f 76f
10:54 2 6 mph 1017.4mb 67f 77f
10:48 3 6 mph 1017.4mb 67f 76f
10:42 2 3 mph 1017.4mb 67f 74f
10:36 1 3 mph 1017.5mb 67f 75f
10:30 2 5 mph 1017.5mb 67f 73f
10:24 3 5 mph 1017.5mb 67f 74f
10:18 2 5 mph 1017.5mb 67f 73f
10:12 3 5 mph 1017.5mb 67f 74f
10:06 2 5 mph 1017.5mb 68f 73f
10:00 3 5 mph 1017.6mb 67f 73f
9:54 3 6 mph 1017.5mb 67f 73f
9:48 3 6 mph 1017.6mb 67f 72f
9:42 5 7 mph 1017.8mb 67f 71f
9:36 6 7 mph 1017.8mb 67f 70f
9:30 5 7 mph 1017.8mb 67f 70f
9:24 3 5 mph 1017.9mb 67f 70f
9:18 2 8 mph 1018mb 67f 69f
9:12 5 7 mph 1018mb 67f 68f
9:06 3 6 mph 1018mb 67f 68f
9:00 5 6 mph 1018mb 67f 68f
8:54 3 6 mph 1018mb 67f 68f
8:48 3 7 mph 1018mb 67f 67f
8:42 5 8 mph 1018mb 67f 66f
8:36 6 7 mph 1018mb 67f 66f
8:30 6 8 mph 1018.1mb 67f 65f
8:24 5 8 mph 1018mb 67f 65f
8:18 5 8 mph 1018.1mb 67f 65f
8:12 5 7 mph 1018.1mb 67f 65f
8:06 6 8 mph 1018.1mb 67f 64f
8:00 6 8 mph 1018mb 67f 64f
7:54 5 8 mph 1017.9mb 67f 64f
7:48 5 8 mph 1017.8mb 67f 64f
7:42 5 8 mph 1017.9mb 67f 63f
7:36 3 7 mph 1017.9mb 67f 63f
7:30 6 8 mph 1017.9mb 67f 63f
7:24 5 8 mph 1017.9mb 67f 63f
7:18 6 7 mph 1017.9mb 67f 62f
7:12 3 6 mph 1017.9mb 67f 62f
7:06 5 7 mph 1017.8mb 67f 62f
7:00 6 7 mph 1017.7mb 67f 62f
6:54 6 8 mph 1017.6mb 67f 62f
6:48 5 7 mph 1017.6mb 67f 62f
6:42 5 7 mph 1017.5mb 67f 62f
6:36 3 7 mph 1017.5mb 67f 62f
6:30 5 8 mph 1017.4mb 67f 62f
6:24 5 7 mph 1017.4mb 67f 62f
6:18 5 7 mph 1017.4mb 67f 62f
6:12 6 7 mph 1017.3mb 67f 62f
6:06 3 8 mph 1017.3mb 67f 62f
6:00 3 6 mph 1017.3mb 67f 62f
5:54 5 7 mph 1017.2mb 67f 62f
5:48 5 7 mph 1017.1mb 67f 62f
5:42 5 6 mph 1017.1mb 67f 62f
5:36 5 7 mph 1017.1mb 67f 62f
5:30 5 7 mph 1017mb 67f 62f
5:24 5 6 mph 1017mb 67f 62f
5:18 3 6 mph 1017mb 67f 62f
5:12 3 6 mph 1017mb 67f 62f
5:06 3 6 mph 1016.9mb 67f 62f
5:00 3 7 mph 1017mb 67f 62f
4:54 3 6 mph 1017.1mb 67f 62f
4:48 3 6 mph 1017mb 67f 62f
4:42 2 5 mph 1016.9mb 67f 62f
4:36 3 6 mph 1016.9mb 67f 62f
4:30 3 7 mph 1016.9mb 67f 62f
4:24 5 7 mph 1016.9mb 67f 63f
4:18 6 8 mph 1016.9mb 67f 63f
4:12 6 8 mph 1016.8mb 67f 63f
4:06 5 7 mph 1016.8mb 67f 63f
4:00 5 7 mph 1016.8mb 67f 63f
3:54 5 6 mph 1016.7mb 67f 63f
3:48 2 3 mph 1016.6mb 67f 63f
3:42 1 3 mph 1016.6mb 67f 63f
3:36 2 3 mph 1016.5mb 67f 63f
3:30 2 3 mph 1016.4mb 67f 63f
3:24 2 5 mph 1016.4mb 67f 63f
3:18 1 5 mph 1016.5mb 67f 63f
3:12 2 3 mph 1016.5mb 67f 63f
3:06 1 3 mph 1016.5mb 67f 64f
3:00 3 5 mph 1016.6mb 67f 64f
2:54 1 2 mph 1016.6mb 67f 63f
2:48  -  5 mph 1016.6mb 67f 64f
2:42 3 5 mph 1016.5mb 67f 64f
2:36 3 5 mph 1016.5mb 67f 64f
2:30 5 5 mph 1016.5mb 67f 64f
2:24 3 5 mph 1016.4mb 67f 64f
2:18 3 5 mph 1016.3mb 67f 64f
2:12 3 3 mph 1016.2mb 67f 64f
2:06 2 3 mph 1016.2mb 67f 64f
2:00  -  2 mph 1016.3mb 67f 64f
1:54 2 6 mph 1016.3mb 67f 64f
1:48 5 5 mph 1016.4mb 67f 64f
1:42 3 5 mph 1016.6mb 67f 64f
1:36 3 5 mph 1016.6mb 67f 64f
1:30 1 5 mph 1016.6mb 67f 64f
1:24 3 6 mph 1016.7mb 67f 64f
1:18 3 6 mph 1016.7mb 67f 64f
1:12 5 7 mph 1016.8mb 67f 65f
1:06 5 7 mph 1016.7mb 67f 65f
1:00 6 7 mph 1016.7mb 67f 65f
12:54 5 7 mph 1016.8mb 67f 65f
12:48 3 6 mph 1016.9mb 67f 65f
12:42 3 6 mph 1016.9mb 67f 65f
12:36 5 6 mph 1016.8mb 67f 65f
12:30 3 6 mph 1016.7mb 67f 65f
12:24 5 6 mph 1016.7mb 67f 65f
12:18 6 7 mph 1016.8mb 67f 65f
12:12 6 6 mph 1016.8mb 67f 65f
12:06 5 6 mph 1016.9mb 67f 65f
12:00 3 6 mph 1016.9mb 67f 65f
Sa 09/23 11:54 5 7 mph 1017mb 67f 65f
11:48 5 6 mph 1017mb 67f 65f
11:42 3 6 mph 1017mb 67f 65f
11:36 3 5 mph 1017mb 67f 66f
11:30 3 6 mph 1016.9mb 67f 66f
11:24 3 6 mph 1016.9mb 67f 66f
11:18 3 6 mph 1016.9mb 67f 66f
11:12 5 5 mph 1016.9mb 67f 66f
11:06 3 5 mph 1016.8mb 67f 66f
11:00 3 5 mph 1016.9mb 67f 66f
10:54 3 5 mph 1016.9mb 67f 66f
10:48 3 5 mph 1016.9mb 67f 67f
10:42 3 3 mph 1016.9mb 67f 67f
10:36 1 1 mph 1016.9mb 67f 67f
10:30 1 2 mph 1016.9mb 67f 67f
10:24 1 2 mph 1016.8mb 67f 67f
10:18 1 2 mph 1016.9mb 67f 67f
10:12 1 2 mph 1016.9mb 67f 67f
10:06  -  1 mph 1016.9mb 67f 67f
10:00  -  2 mph 1016.8mb 67f 67f
9:54 1 2 mph 1016.8mb 68f 68f
9:48 1 2 mph 1016.8mb 68f 68f
9:42 1 2 mph 1016.8mb 68f 68f
9:36 1 2 mph 1016.8mb 68f 68f
9:30  -  2 mph 1016.8mb 68f 68f
9:24  -  0 mph 1016.7mb 68f 68f
9:18  -  0 mph 1016.7mb 68f 68f
9:12  -  0 mph 1016.7mb 68f 68f
9:06  -  0 mph 1016.7mb 68f 69f
9:00  -  0 mph 1016.6mb 68f 69f
8:54  -  2 mph 1016.6mb 68f 69f
8:48 1 2 mph 1016.6mb 68f 69f
8:42  -  2 mph 1016.6mb 68f 70f
8:36  -  2 mph 1016.6mb 68f 69f
8:30  -  1 mph 1016.6mb 68f 70f
8:24  -  2 mph 1016.6mb 68f 70f
8:18  -  1 mph 1016.6mb 68f 70f
8:12  -  2 mph 1016.6mb 68f 71f
8:06 1 2 mph 1016.5mb 68f 71f
8:00 2 3 mph 1016.4mb 68f 71f
7:54 2 5 mph 1016.4mb 68f 71f
7:48 3 5 mph 1016.3mb 68f 71f
7:42 3 5 mph 1016.2mb 68f 71f
7:36 1 3 mph 1016.1mb 68f 71f
7:30 2 3 mph 1016.1mb 68f 71f
7:24 2 3 mph 1016.1mb 68f 71f
7:18 3 5 mph 1016mb 68f 71f
7:12 5 5 mph 1015.8mb 68f 71f
7:06 5 6 mph 1015.7mb 68f 71f
7:00 6 7 mph 1015.7mb 68f 71f
6:54 6 7 mph 1015.7mb 68f 71f
6:48 7 8 mph 1015.7mb 68f 72f
6:42 8 9 mph 1015.6mb 68f 71f
6:36 8 9 mph 1015.6mb 68f 72f
6:30 7 9 mph 1015.6mb 68f 72f
6:24 8 11 mph 1015.5mb 68f 72f
6:18 8 11 mph 1015.4mb 68f 73f
6:12 10 11 mph 1015.3mb 68f 74f
6:06 5 7 mph 1015.3mb 68f 77f
6:00 2 5 mph 1015.2mb 68f 82f
5:54 2 5 mph 1015.2mb 68f 82f
5:48 3 6 mph 1015.2mb 68f 82f
5:42 2 5 mph 1015mb 68f 82f
5:36 2 5 mph 1015mb 68f 83f
5:30 3 5 mph 1015mb 68f 83f
5:24 2 6 mph 1014.9mb 68f 83f
5:18 2 6 mph 1014.8mb 68f 83f
5:12 3 7 mph 1014.7mb 68f 83f
5:06 3 6 mph 1014.7mb 68f 83f
5:00 3 6 mph 1014.7mb 68f 83f
4:54 1 5 mph 1014.7mb 68f 83f
4:48 5 7 mph 1014.6mb 68f 82f
4:42 3 8 mph 1014.7mb 68f 82f
4:36 3 5 mph 1014.7mb 68f 82f
4:30 1 6 mph 1014.7mb 67f 83f
4:24 2 6 mph 1014.7mb 67f 82f
4:18 5 8 mph 1014.7mb 68f 82f
4:12 3 7 mph 1014.6mb 68f 82f
4:06 3 8 mph 1014.6mb 68f 83f
4:00 5 6 mph 1014.7mb 68f 82f
3:54 3 7 mph 1014.7mb 68f 83f
3:48 3 8 mph 1014.6mb 68f 82f
3:42 2 7 mph 1014.7mb 68f 83f
3:36 6 9 mph 1014.9mb 68f 83f
3:30 5 10 mph 1014.9mb 68f 83f
3:24 5 9 mph 1015mb 68f 83f
3:18 2 7 mph 1014.9mb 68f 83f
3:12 3 7 mph 1015mb 68f 81f
3:06 3 8 mph 1015mb 68f 81f
3:00 6 8 mph 1015.1mb 68f 82f
2:54 3 9 mph 1015.1mb 68f 81f
2:48 5 9 mph 1015mb 68f 82f
2:42 3 8 mph 1015mb 68f 82f
2:36 3 10 mph 1015.1mb 68f 82f
2:30 6 10 mph 1015.3mb 68f 81f
2:24 3 8 mph 1015.3mb 68f 82f
2:18 6 11 mph 1015.2mb 68f 81f
2:12 6 9 mph 1015.3mb 68f 81f
2:06 6 11 mph 1015.3mb 67f 80f
2:00 5 9 mph 1015.3mb 67f 81f
1:54 2 8 mph 1015.4mb 67f 80f
1:48 6 9 mph 1015.4mb 67f 80f
1:42 6 11 mph 1015.3mb 67f 80f
1:36 6 10 mph 1015.3mb 67f 79f
1:30 6 10 mph 1015.4mb 67f 79f
1:24 5 9 mph 1015.4mb 67f 79f
1:18 6 11 mph 1015.4mb 67f 79f
1:12 3 9 mph 1015.4mb 67f 79f
1:06 7 10 mph 1015.4mb 67f 78f
1:00 7 11 mph 1015.5mb 67f 78f
12:54 7 11 mph 1015.4mb 67f 77f
12:48 7 11 mph 1015.4mb 67f 77f
12:42 5 10 mph 1015.5mb 67f 77f
12:36 5 11 mph 1015.5mb 67f 77f
12:30 5 10 mph 1015.5mb 67f 76f
12:24 6 13 mph 1015.5mb 67f 76f
12:18 6 16 mph 1015.6mb 67f 76f
12:12 9 15 mph 1015.7mb 67f 75f
12:06 7 15 mph 1015.7mb 67f 75f
12:00 10 17 mph 1015.8mb 67f 75f
11:54 6 14 mph 1015.8mb 67f 76f
11:48 8 13 mph 1015.7mb 67f 75f
11:42 8 13 mph 1015.7mb 67f 75f
11:36 7 14 mph 1015.8mb 67f 75f
11:30 7 13 mph 1015.8mb 67f 74f
11:24 7 14 mph 1015.8mb 67f 74f
11:18 7 13 mph 1015.8mb 67f 74f
11:12 7 14 mph 1015.8mb 67f 74f
11:06 5 15 mph 1015.9mb 67f 73f
11:00 8 14 mph 1015.9mb 67f 73f
10:54 6 15 mph 1015.9mb 67f 73f
10:48 9 14 mph 1016mb 67f 73f
10:42 8 14 mph 1015.9mb 67f 72f
10:36 9 14 mph 1015.8mb 67f 72f
10:30 6 14 mph 1015.8mb 67f 72f
10:24 5 10 mph 1015.8mb 67f 72f
10:18 6 11 mph 1015.8mb 67f 72f
10:12 7 11 mph 1015.8mb 67f 71f
10:06 6 13 mph 1015.8mb 67f 71f
10:00 6 14 mph 1015.7mb 67f 71f
9:54 7 14 mph 1015.7mb 67f 70f
9:48 8 14 mph 1015.7mb 67f 70f
9:42 5 14 mph 1015.7mb 67f 70f
9:36 9 14 mph 1015.7mb 67f 70f
9:30 7 15 mph 1015.7mb 67f 70f
9:24 6 11 mph 1015.6mb 67f 69f
9:18 6 15 mph 1015.4mb 67f 69f
9:12 5 11 mph 1015.2mb 67f 69f
9:06 5 13 mph 1015.1mb 67f 69f
9:00 3 9 mph 1015.1mb 67f 69f
8:54 6 14 mph 1015mb 67f 68f
8:48 5 9 mph 1014.9mb 67f 68f
8:42 5 9 mph 1014.9mb 67f 68f
8:36 6 11 mph 1015mb 67f 68f
8:30 3 14 mph 1014.9mb 67f 68f
8:24 7 11 mph 1014.8mb 67f 67f
8:18 6 14 mph 1014.7mb 67f 67f
8:12 7 13 mph 1014.7mb 67f 67f
8:06 3 10 mph 1014.6mb 66f 67f
8:00 7 14 mph 1014.5mb 66f 67f
7:54 3 9 mph 1014.3mb 66f 67f
7:48 6 13 mph 1014.3mb 66f 67f
7:42 6 11 mph 1014.3mb 66f 67f
7:36 3 13 mph 1014.2mb 66f 67f
7:30 6 13 mph 1014.1mb 66f 66f
7:24 6 13 mph 1014mb 66f 66f
7:18 7 14 mph 1013.9mb 66f 66f
7:12 3 11 mph 1013.8mb 66f 66f
7:06 3 16 mph 1013.9mb 66f 66f
7:00 7 11 mph 1013.7mb 66f 66f
6:54 7 15 mph 1013.8mb 66f 66f
6:48 8 14 mph 1013.7mb 66f 66f
6:42 6 15 mph 1013.8mb 66f 66f
6:36 7 14 mph 1013.8mb 66f 66f
6:30 6 14 mph 1013.8mb 66f 66f
6:24 5 14 mph 1013.9mb 66f 66f
6:18 7 21 mph 1013.8mb 66f 66f
6:12 9 14 mph 1013.8mb 66f 66f
6:06 5 14 mph 1013.8mb 66f 66f
6:00 3 17 mph 1013.8mb 66f 66f
5:54 6 15 mph 1013.8mb 66f 66f
5:48 5 13 mph 1013.8mb 66f 66f
5:42 3 11 mph 1013.7mb 66f 66f
5:36 5 15 mph 1013.6mb 66f 66f
5:30 7 14 mph 1013.7mb 66f 66f
5:24 6 10 mph 1013.6mb 66f 66f
5:18 6 15 mph 1013.6mb 66f 66f
5:12 7 14 mph 1013.6mb 66f 66f
5:06 6 14 mph 1013.6mb 66f 66f
5:00 6 14 mph 1013.6mb 66f 66f
4:54 6 11 mph 1013.6mb 66f 66f
4:48 5 13 mph 1013.6mb 67f 67f
4:42 6 16 mph 1013.6mb 66f 67f
4:36 3 13 mph 1013.5mb 66f 66f
4:30 3 11 mph 1013.4mb 66f 66f
4:24 7 14 mph 1013.3mb 66f 66f
4:18 10 18 mph 1013.3mb 66f 66f
4:12 6 14 mph 1013.4mb 66f 66f
4:06 5 17 mph 1013.4mb 66f 66f
4:00 7 18 mph 1013.2mb 66f 66f
3:54 6 11 mph 1013.2mb 66f 66f
3:48 6 15 mph 1013.2mb 66f 66f
3:42 6 13 mph 1013.2mb 66f 66f
3:36 7 16 mph 1013.4mb 66f 66f
3:30 5 15 mph 1013.3mb 66f 66f
3:24 6 15 mph 1013.3mb 66f 66f
3:18 6 10 mph 1013.4mb 66f 66f
3:12 8 16 mph 1013.3mb 66f 66f
3:06 5 11 mph 1013.2mb 66f 66f
3:00 6 15 mph 1013.1mb 66f 66f
2:54 7 14 mph 1013mb 67f 66f
2:48 7 16 mph 1012.9mb - -
2:42 7 13 mph 1012.9mb - -
2:36 5 9 mph 1013.1mb - -
2:30 2 9 mph 1013.1mb 67f 66f
2:24 5 9 mph 1013.1mb 66f 66f
2:18 5 9 mph 1013.1mb 67f 66f
2:12 3 9 mph 1013.2mb 67f 66f
2:06 5 10 mph 1013.2mb 67f 66f
2:00 6 13 mph 1013.2mb 67f 66f
1:54 5 11 mph 1013.2mb 67f 66f
1:48 5 13 mph 1013.2mb 67f 66f
1:42 5 11 mph 1013.3mb 67f 66f
1:36 6 13 mph 1013.2mb 67f 66f
1:30 6 18 mph 1013.2mb 67f 66f
1:24 5 14 mph 1013.3mb 67f 66f
1:18 6 14 mph 1013.3mb 67f 66f
1:12 9 15 mph 1013.3mb 67f 66f
1:06 5 15 mph 1013.2mb 67f 66f
1:00 7 14 mph 1013.1mb 67f 66f
12:54 7 15 mph 1013.1mb 67f 66f
12:48 7 15 mph 1013.1mb 67f 66f
12:42 6 14 mph 1013.1mb 67f 65f
12:36 6 11 mph 1013.1mb 67f 65f
12:30 3 14 mph 1013.2mb 67f 65f
12:24 6 11 mph 1013.1mb 67f 65f
12:18 5 13 mph 1013.2mb 67f 65f
12:12 6 13 mph 1013.3mb 67f 65f
12:06 5 10 mph 1013.2mb 67f 65f
12:00 6 13 mph 1013.2mb 67f 65f
Fr 09/22 11:54 8 17 mph 1013.3mb 67f 65f
11:48 5 10 mph 1013.3mb 67f 65f
11:42 8 20 mph 1013.3mb 67f 65f
11:36 9 17 mph 1013.3mb 67f 65f
11:30 5 17 mph 1013.2mb 66f 65f
11:24 7 16 mph 1013.2mb 67f 65f
11:18 3 13 mph 1013.4mb 67f 64f
11:12 5 16 mph 1013.4mb 67f 64f
11:06 6 14 mph 1013.5mb 67f 64f
11:00 2 14 mph 1013.5mb 67f 64f
10:54 8 15 mph 1013.3mb 67f 64f
10:48 10 18 mph 1013.4mb 67f 64f
10:42 8 16 mph 1013.4mb 67f 64f
10:36 5 14 mph 1013.5mb 67f 64f
10:30 6 15 mph 1013.5mb 67f 64f
10:24 7 15 mph 1013.6mb 67f 64f
10:18 5 16 mph 1013.6mb 67f 64f
10:12 5 14 mph 1013.8mb 67f 65f
10:06 7 15 mph 1013.7mb 67f 65f
10:00 8 18 mph 1013.6mb 67f 65f
9:54 7 17 mph 1013.4mb 67f 65f
9:48 7 16 mph 1013.3mb 67f 65f
9:42 7 16 mph 1013.3mb 67f 65f
9:36 8 15 mph 1013.4mb 67f 65f
9:30 6 13 mph 1013.2mb 67f 65f
9:24 6 14 mph 1013.3mb 67f 65f
9:18 10 18 mph 1013.3mb 67f 65f
9:12 9 21 mph 1013.4mb 67f 65f
9:06 8 21 mph 1013.4mb 67f 65f
9:00 6 14 mph 1013.3mb 67f 65f
8:54 7 15 mph 1013mb 67f 65f
8:48 7 16 mph 1013.2mb 67f 65f
8:42 5 14 mph 1013.2mb 67f 65f
8:36 6 14 mph 1013.3mb 67f 65f
8:30 8 22 mph 1013.4mb 67f 65f
8:24 6 17 mph 1013.4mb 67f 66f
8:18 3 14 mph 1013.4mb 67f 66f
8:12 3 15 mph 1013.3mb 67f 66f
8:06 9 20 mph 1013.2mb 67f 66f
8:00 5 13 mph 1013.3mb 67f 66f
7:54 7 16 mph 1013.4mb 67f 66f
7:48 5 22 mph 1013.3mb 67f 66f
7:42 7 18 mph 1013.3mb 67f 66f
7:36 8 22 mph 1013.1mb 67f 66f
7:30 13 22 mph 1013mb 67f 66f
7:24 3 16 mph 1012.9mb 67f 66f
7:18 7 17 mph 1012.8mb 67f 66f
7:12 5 16 mph 1012.9mb 67f 66f
7:06 5 18 mph 1012.9mb 67f 66f
7:00 7 14 mph 1012.9mb 67f 66f
6:54 6 14 mph 1012.9mb 67f 66f
6:48 8 14 mph 1013mb 67f 66f
6:42 6 18 mph 1013.1mb 67f 66f
6:36 8 17 mph 1013.1mb 67f 66f
6:30 5 17 mph 1013.1mb 67f 66f
6:24 6 13 mph 1013.1mb 67f 66f
6:18 7 16 mph 1013.2mb 67f 66f
6:12 6 14 mph 1013.1mb 67f 66f
6:06 8 22 mph 1013.1mb 67f 66f
6:00 5 22 mph 1013.1mb 67f 66f
5:54 3 14 mph 1013.1mb 67f 66f
5:48 7 17 mph 1013mb 67f 66f
5:42 7 15 mph 1013.2mb 67f 67f
5:36 8 18 mph 1013.2mb 67f 67f
5:30 7 18 mph 1013.1mb 67f 67f
5:24 6 16 mph 1012.9mb 67f 67f
5:18 7 15 mph 1013mb 67f 67f
5:12 8 16 mph 1012.9mb 67f 67f
5:06 5 17 mph 1013mb 67f 67f
5:00 7 15 mph 1013mb 67f 67f
4:54 7 16 mph 1012.9mb 67f 67f
4:48 7 15 mph 1012.9mb 67f 67f
4:42 8 20 mph 1013mb 67f 67f
4:36 5 14 mph 1013mb 67f 67f
4:30 3 11 mph 1013mb 67f 67f
4:24 6 13 mph 1013.1mb 67f 67f
4:18 7 20 mph 1013.1mb 67f 67f
4:12 7 15 mph 1013mb 67f 67f
4:06 7 14 mph 1013.1mb 67f 67f
4:00 6 15 mph 1013.1mb 67f 67f
3:54 6 16 mph 1013mb 67f 67f
3:48 6 17 mph 1013mb 67f 67f
3:42 6 14 mph 1012.8mb 67f 67f
3:36 5 14 mph 1012.8mb 67f 68f
3:30 7 14 mph 1012.7mb 67f 68f
3:24 8 15 mph 1012.8mb 67f 69f
3:18 6 18 mph 1012.8mb 67f 69f
3:12 7 15 mph 1012.8mb 67f 69f
3:06 7 16 mph 1012.7mb 67f 69f
3:00 7 11 mph 1012.7mb 67f 69f
2:54 5 14 mph 1012.8mb 67f 68f
2:48 2 9 mph 1012.8mb 67f 68f
2:42 5 14 mph 1012.9mb 67f 68f
2:36 5 11 mph 1012.9mb 67f 68f
2:30 8 15 mph 1013mb 67f 67f
2:24 7 22 mph 1013.1mb 67f 67f
2:18 10 18 mph 1013mb 67f 68f
2:12 9 21 mph 1012.9mb 67f 68f
2:06 8 20 mph 1012.9mb 67f 68f
2:00 9 17 mph 1013mb 67f 69f
1:54 8 18 mph 1012.9mb 67f 69f
1:48 6 17 mph 1013.1mb 67f 69f
1:42 6 14 mph 1012.9mb 67f 69f
1:36 6 13 mph 1013mb 67f 68f
1:30 9 15 mph 1013.1mb 67f 68f
1:24 10 22 mph 1013mb 67f 68f
1:18 5 15 mph 1013.2mb 67f 67f
1:12 7 18 mph 1013.3mb 67f 67f
1:06 6 22 mph 1013.5mb 67f 68f
1:00 7 18 mph 1013.6mb 67f 68f
12:54 9 21 mph 1013.5mb 67f 68f
12:48 8 16 mph 1013.6mb 67f 68f
12:42 7 15 mph 1013.6mb 67f 68f
12:36 10 20 mph 1013.5mb 67f 68f
12:30 10 21 mph 1013.4mb 67f 68f
12:24 10 17 mph 1013.5mb 67f 68f
12:18 8 20 mph 1013.6mb 67f 68f
12:12 9 18 mph 1013.6mb 67f 68f
12:06 7 22 mph 1013.6mb 67f 69f
12:00 9 21 mph 1013.4mb 67f 68f
11:54 10 18 mph 1013.4mb 67f 68f
11:48 13 18 mph 1013.5mb 67f 68f
11:42 6 11 mph 1013.5mb 67f 67f
11:36 9 22 mph 1013.6mb 67f 67f
11:30 11 17 mph 1013.6mb 67f 67f
11:24 6 15 mph 1013.7mb 67f 67f
11:18 6 15 mph 1013.6mb 67f 67f
11:12 9 23 mph 1013.4mb 67f 67f
11:06 11 25 mph 1013.3mb 67f 67f
11:00 11 23 mph 1013.3mb 67f 67f
10:54 10 22 mph 1013.5mb 67f 67f
10:48 9 22 mph 1013.7mb 67f 67f
10:42 10 20 mph 1013.6mb 67f 67f
10:36 9 22 mph 1013.5mb 67f 67f
10:30 13 20 mph 1013.6mb 67f 66f
10:24 7 17 mph 1013.6mb 67f 66f
10:18 11 18 mph 1013.7mb 67f 66f
10:12 9 18 mph 1013.6mb 67f 66f
10:06 13 20 mph 1013.6mb 67f 66f
10:00 8 16 mph 1013.6mb 67f 66f
9:54 10 21 mph 1013.5mb 67f 66f
9:48 11 20 mph 1013.4mb 67f 66f
9:42 9 21 mph 1013.4mb 67f 66f
9:36 8 20 mph 1013.6mb 67f 66f
9:30 9 15 mph 1013.3mb 67f 66f
9:24 7 18 mph 1013.5mb 67f 66f
9:18 7 18 mph 1013.6mb 67f 66f
9:12 14 24 mph 1013.6mb 67f 65f
9:06 5 10 mph 1013.7mb 67f 65f
9:00 7 17 mph 1013.5mb 67f 65f
8:54 6 17 mph 1013.5mb 67f 65f
8:48 7 14 mph 1013.5mb 67f 65f
8:42 8 15 mph 1013.5mb 67f 65f
8:36 7 14 mph 1013.6mb 67f 65f
8:30 6 13 mph 1013.5mb 67f 65f
8:24 5 14 mph 1013.5mb 67f 65f
8:18 7 15 mph 1013.5mb 67f 65f
8:12 7 17 mph 1013.6mb 67f 65f
8:06 6 17 mph 1013.6mb 67f 65f
8:00 7 17 mph 1013.5mb 67f 64f
7:54 7 14 mph 1013.6mb 67f 64f
7:48 7 15 mph 1013.5mb 67f 65f
7:42 9 17 mph 1013.4mb 67f 64f
7:36 5 15 mph 1013.4mb 67f 65f
7:30 9 16 mph 1013.3mb 67f 64f
7:24 5 18 mph 1013.3mb 67f 64f
7:18 7 22 mph 1013.3mb 67f 64f
7:12 8 20 mph 1013.3mb 67f 64f
7:06 7 15 mph 1013.2mb 67f 64f
7:00 6 17 mph 1013.3mb 67f 64f
6:54 8 22 mph 1013.2mb 67f 65f
6:48 5 17 mph 1013.2mb 67f 65f
6:42 6 11 mph 1013.3mb 67f 65f
6:36 5 15 mph 1013.2mb 67f 65f
6:30 6 10 mph 1013.2mb 67f 65f
6:24 3 14 mph 1013.2mb 67f 65f
6:18 6 16 mph 1013mb 67f 65f
6:12 8 20 mph 1013mb 67f 65f
6:06 8 21 mph 1012.9mb 67f 65f
6:00 9 15 mph 1012.9mb 67f 65f
5:54 8 16 mph 1012.9mb 67f 65f
5:48 7 16 mph 1012.8mb 67f 65f
5:42 9 17 mph 1012.8mb 67f 65f
5:36 7 14 mph 1012.8mb 67f 65f
5:30 2 18 mph 1012.9mb 67f 65f
5:24 9 21 mph 1012.6mb 67f 65f
5:18 10 17 mph 1012.5mb 67f 65f
5:12 8 15 mph 1012.7mb 67f 65f
5:06 7 14 mph 1012.6mb 67f 65f
5:00 5 13 mph 1012.8mb 67f 65f
4:54 5 10 mph 1012.7mb 67f 65f
4:48 8 17 mph 1012.7mb 67f 65f
4:42 5 13 mph 1012.6mb 67f 65f
4:36 5 16 mph 1012.6mb 67f 65f
4:30 9 16 mph 1012.6mb 67f 65f
4:24 6 15 mph 1012.8mb 67f 65f
4:18 8 17 mph 1012.7mb 67f 65f
4:12 5 20 mph 1012.9mb 67f 65f
4:06 6 11 mph 1012.9mb 67f 65f
4:00 5 14 mph 1012.9mb 67f 65f
3:54 6 18 mph 1012.9mb 67f 65f
3:48 13 21 mph 1012.8mb 67f 65f
3:42 7 14 mph 1012.9mb 67f 65f
3:36 6 15 mph 1013mb 67f 65f
3:30 7 13 mph 1012.9mb 67f 65f
3:24 7 17 mph 1012.9mb 67f 65f
3:18 8 15 mph 1012.8mb 67f 66f
3:12 6 13 mph 1012.9mb 67f 66f
3:06 9 16 mph 1012.7mb 67f 66f
3:00 6 18 mph 1012.8mb 67f 66f
2:54 13 20 mph 1012.8mb 67f 66f
2:48 3 15 mph 1013mb 67f 66f
2:42 6 18 mph 1013mb 67f 66f
2:36 7 18 mph 1013mb 67f 66f
2:30 11 20 mph 1012.9mb 67f 66f
2:24 6 13 mph 1013.3mb 67f 66f
2:18 6 17 mph 1013.4mb 67f 66f
2:12 7 17 mph 1013.3mb 67f 66f
2:06 11 20 mph 1013.4mb 67f 66f
2:00 8 17 mph 1013.4mb 67f 67f
1:54 3 15 mph 1013.7mb 67f 67f
1:48 7 18 mph 1013.9mb - -
1:42 6 20 mph 1013.9mb - -
1:36 8 14 mph 1014mb - -
1:30 3 15 mph 1014.1mb 67f 67f
1:24 3 17 mph 1013.9mb 67f 67f
1:18 6 11 mph 1014mb 67f 67f
1:12 7 18 mph 1014.1mb 67f 67f
1:06 6 17 mph 1014mb 67f 67f
1:00 7 15 mph 1013.9mb 67f 67f
12:54 7 17 mph 1014.1mb 67f 67f
12:48 6 15 mph 1014.1mb 67f 67f
12:42 9 16 mph 1014.1mb 67f 67f
12:36 6 13 mph 1014.2mb 67f 67f
12:30 6 11 mph 1014.3mb 67f 67f
12:24 5 11 mph 1014.3mb 67f 67f
12:18 2 13 mph 1014.2mb 67f 68f
12:12 5 11 mph 1014.1mb 67f 68f
12:06 7 15 mph 1014.1mb 67f 68f
12:00 6 14 mph 1014.1mb 67f 68f
Do 09/21 11:54 6 13 mph 1014.2mb 67f 68f
11:48 6 10 mph 1014.4mb 67f 68f
11:42 3 14 mph 1014.3mb 67f 68f
11:36 6 11 mph 1014.3mb 67f 68f
11:30 6 16 mph 1014.2mb 67f 69f
11:24 3 13 mph 1014.1mb 67f 68f
11:18 6 13 mph 1014.2mb 67f 69f
11:12 6 16 mph 1014.2mb 67f 69f
11:06 5 14 mph 1014.3mb 67f 69f
11:00 6 13 mph 1014.3mb 67f 69f
10:54 5 9 mph 1014.3mb 67f 69f
10:48 5 10 mph 1014.4mb 67f 69f
10:42 6 11 mph 1014.4mb 67f 69f
10:36 6 14 mph 1014.3mb 67f 69f
10:30 7 14 mph 1014.3mb 67f 69f
10:24 5 15 mph 1014.2mb 67f 69f
10:18 3 11 mph 1014.3mb 67f 69f
10:12 5 14 mph 1014.3mb 67f 69f
10:06 10 17 mph 1014.4mb 67f 69f
10:00 8 15 mph 1014.5mb 67f 69f
9:54 8 17 mph 1014.5mb 67f 69f
9:48 9 17 mph 1014.5mb 67f 69f
9:42 6 14 mph 1014.6mb 67f 69f
9:36 7 16 mph 1014.6mb 67f 69f
9:30 7 17 mph 1014.7mb 67f 69f
9:24 7 17 mph 1014.7mb 67f 69f
9:18 10 16 mph 1014.7mb 67f 69f
9:12 6 13 mph 1014.7mb 67f 69f
9:06 9 15 mph 1014.7mb 67f 69f
9:00 3 17 mph 1014.7mb 67f 69f
8:54 5 14 mph 1014.7mb 67f 69f
8:48 5 14 mph 1014.6mb 67f 69f
8:42 7 14 mph 1014.6mb 67f 69f
8:36 5 15 mph 1014.6mb 67f 69f
8:30 7 14 mph 1014.6mb 67f 69f
8:24 5 11 mph 1014.6mb 67f 69f
8:18 6 11 mph 1014.7mb 68f 69f
8:12 6 15 mph 1014.7mb 68f 69f
8:06 7 14 mph 1014.8mb 68f 69f
8:00 5 11 mph 1014.8mb 68f 69f
7:54 3 9 mph 1014.8mb 68f 69f
7:48 3 14 mph 1014.8mb 68f 69f
7:42 6 13 mph 1014.7mb 68f 69f
7:36 8 15 mph 1014.7mb 68f 69f
7:30 9 16 mph 1014.6mb 68f 70f
7:24 8 15 mph 1014.5mb 68f 70f
7:18 9 15 mph 1014.5mb 68f 69f
7:12 7 11 mph 1014.5mb 67f 70f
7:06 3 9 mph 1014.5mb 68f 69f
7:00 7 14 mph 1014.4mb 68f 70f
6:54 7 14 mph 1014.3mb 68f 70f
6:48 8 16 mph 1014.3mb 68f 70f
6:42 7 13 mph 1014.3mb 68f 70f
6:36 8 15 mph 1014.2mb 68f 70f
6:30 8 13 mph 1014.2mb 68f 70f
6:24 7 14 mph 1014.2mb 68f 70f
6:18 9 15 mph 1014.2mb 68f 70f
6:12 7 13 mph 1014.2mb 68f 70f
6:06 7 16 mph 1014.2mb 68f 70f
6:00 9 15 mph 1014.1mb 68f 70f
5:54 6 14 mph 1014mb 68f 70f
5:48 6 16 mph 1014mb 68f 70f
5:42 7 14 mph 1014mb 68f 70f
5:36 9 17 mph 1014mb 68f 71f
5:30 9 16 mph 1014mb 68f 71f
5:24 7 17 mph 1014mb 68f 71f
5:18 10 16 mph 1014mb 68f 71f
5:12 8 15 mph 1013.9mb 68f 71f
5:06 8 15 mph 1013.9mb 68f 71f
5:00 10 16 mph 1013.9mb 68f 71f
4:54 8 13 mph 1013.9mb 68f 71f
4:48 6 11 mph 1013.8mb 68f 71f
4:42 5 10 mph 1013.9mb 68f 71f
4:36 3 13 mph 1013.8mb 68f 71f
4:30 5 14 mph 1013.8mb 68f 71f
4:24 6 13 mph 1013.8mb 68f 71f
4:18 5 14 mph 1013.9mb 68f 71f
4:12 6 13 mph 1013.9mb 68f 71f
4:06 7 15 mph 1013.9mb 68f 71f
4:00 3 11 mph 1013.9mb 68f 71f
3:54 6 13 mph 1013.9mb 68f 71f
3:48 6 10 mph 1013.8mb 68f 71f
3:42 7 13 mph 1013.7mb 68f 71f
3:36 5 10 mph 1013.6mb 68f 71f
3:30 5 13 mph 1013.6mb 68f 71f
3:24 8 17 mph 1013.5mb 68f 71f
3:18 3 15 mph 1013.6mb 68f 71f
3:12 7 13 mph 1013.6mb 68f 71f
3:06 8 17 mph 1013.6mb 68f 71f
3:00 5 10 mph 1013.6mb 68f 71f
2:54 5 18 mph 1013.6mb 68f 71f
2:48 9 17 mph 1013.7mb 68f 71f
2:42 5 15 mph 1013.7mb 68f 71f
2:36 11 17 mph 1013.7mb 68f 71f
2:30 8 17 mph 1013.8mb 68f 71f
2:24 10 21 mph 1013.7mb 68f 71f
2:18 6 14 mph 1013.7mb 68f 71f
2:12 2 13 mph 1013.9mb 68f 71f
2:06 6 14 mph 1013.9mb 68f 71f
2:00 6 14 mph 1013.8mb 68f 71f
1:54 7 14 mph 1013.8mb 68f 71f
1:48 6 14 mph 1013.7mb 68f 71f
1:42 6 15 mph 1013.7mb 68f 71f
1:36 6 13 mph 1013.7mb 68f 72f
1:30 7 17 mph 1013.8mb 68f 72f
1:24 6 13 mph 1013.8mb 68f 72f
1:18 5 16 mph 1013.8mb 68f 71f
1:12 8 20 mph 1013.9mb 68f 72f
1:06 5 14 mph 1014mb 68f 71f
1:00 5 14 mph 1014.1mb 68f 71f
12:54 7 20 mph 1014mb 68f 72f
12:48 7 14 mph 1014.1mb 68f 72f
12:42 7 14 mph 1014.1mb 68f 72f
12:36 3 10 mph 1014.2mb 68f 72f
12:30 6 16 mph 1014.3mb 68f 72f
12:24 7 11 mph 1014.2mb 68f 71f
12:18 5 10 mph 1014.2mb 68f 71f
12:12 6 17 mph 1014.2mb 68f 72f
12:06 6 13 mph 1014.1mb 68f 72f
12:00 7 17 mph 1014.1mb 68f 71f
11:54 6 14 mph 1014.1mb 68f 72f
11:48 7 14 mph 1014.1mb 68f 72f
11:42 3 14 mph 1014.1mb 68f 71f
11:36 5 11 mph 1014.2mb 68f 71f
11:30 3 14 mph 1014.2mb 68f 71f
11:24 3 10 mph 1014.2mb 68f 71f
11:18 3 13 mph 1014.3mb 68f 71f
11:12 5 10 mph 1014.2mb 68f 71f
11:06 6 11 mph 1014.2mb 68f 71f
11:00 7 16 mph 1014.2mb 68f 71f
10:54 7 15 mph 1014.2mb 68f 71f
10:48 5 18 mph 1014.3mb 68f 71f
10:42 6 13 mph 1014.3mb 68f 71f
10:36 7 14 mph 1014.2mb 68f 71f
10:30 6 14 mph 1014.2mb 68f 71f
10:24 6 14 mph 1014.2mb 68f 71f
10:18 7 13 mph 1014.2mb 68f 71f
10:12 8 16 mph 1014.1mb 68f 71f
10:06 3 13 mph 1014mb 68f 71f
10:00 5 11 mph 1014mb 68f 71f
9:54 3 17 mph 1013.9mb 68f 71f
9:48 8 17 mph 1013.7mb 68f 71f
9:42 8 17 mph 1013.6mb 68f 71f
9:36 6 17 mph 1013.5mb 68f 71f
9:30 8 16 mph 1013.5mb 68f 71f
9:24 8 16 mph 1013.6mb 68f 71f
9:18 9 14 mph 1013.7mb 68f 71f
9:12 7 11 mph 1013.7mb 68f 71f
9:06 6 13 mph 1013.6mb 68f 71f
9:00 5 13 mph 1013.5mb 68f 71f
8:54 6 10 mph 1013.4mb 68f 71f
8:48 6 15 mph 1013.3mb 68f 71f
8:42 6 13 mph 1013.2mb 68f 71f
8:36 7 11 mph 1013.2mb 68f 71f
8:30 5 10 mph 1013.1mb 68f 71f
8:24 6 11 mph 1013.1mb 68f 71f
8:18 5 14 mph 1013mb 68f 71f
8:12 8 16 mph 1012.7mb 68f 71f
8:06 6 15 mph 1012.7mb 68f 71f
8:00 9 14 mph 1012.7mb 68f 71f